| time (UTC) | temp F | wind direction | speed MPH | gust MPH | rain 1hr in | rain 24hr in | rain mn in | humidity % | barometer mb |
| 20260902014605 | 73 | 143 | 6.0 | 9.0 | 0.00 | 0.00 | 0.00 | 45 | 1011.8 |
| 20260902013106 | 74 | 154 | 7.0 | 9.0 | 0.00 | 0.00 | 0.00 | 43 | 1011.8 |
| 20260902011605 | 75 | 153 | 6.0 | 11.0 | 0.00 | 0.00 | 0.00 | 41 | 1011.9 |
| 20260902010106 | 77 | 185 | 10.0 | 17.0 | 0.00 | 0.00 | 0.00 | 39 | 1012.0 |
| 20260902004614 | 78 | 181 | 12.0 | 19.0 | 0.00 | 0.00 | 0.00 | 38 | 1012.1 |
| 20260902003110 | 79 | 169 | 10.0 | 21.0 | 0.00 | 0.00 | 0.00 | 38 | 1012.0 |
| 20260902001604 | 79 | 169 | 12.0 | 18.0 | 0.00 | 0.00 | 0.00 | 38 | 1012.0 |
| 20260902000107 | 80 | 170 | 11.0 | 20.0 | 0.00 | 0.00 | 0.00 | 37 | 1011.9 |
| 20260901234617 | 81 | 199 | 12.0 | 20.0 | 0.00 | 0.00 | 0.00 | 35 | 1011.8 |
| 20260901233107 | 81 | 142 | 11.0 | 20.0 | 0.00 | 0.00 | 0.00 | 32 | 1012.1 |
| 20260901231606 | 81 | 153 | 11.0 | 18.0 | 0.00 | 0.00 | 0.00 | 31 | 1012.1 |
| 20260901230139 | 81 | 171 | 15.0 | 23.0 | 0.00 | 0.00 | 0.00 | 31 | 1012.2 |
| 20260901224604 | 81 | 152 | 16.0 | 23.0 | 0.00 | 0.00 | 0.00 | 31 | 1012.2 |
| 20260901223119 | 81 | 151 | 18.0 | 24.0 | 0.00 | 0.00 | 0.00 | 29 | 1012.4 |
| 20260901221606 | 81 | 162 | 15.0 | 23.0 | 0.00 | 0.00 | 0.00 | 28 | 1012.4 |
| 20260901220108 | 81 | 136 | 19.0 | 27.0 | 0.00 | 0.00 | 0.00 | 29 | 1012.7 |
| 20260901214605 | 82 | 171 | 14.0 | 28.0 | 0.00 | 0.00 | 0.00 | 28 | 1012.9 |
| 20260901213106 | 82 | 126 | 14.0 | 27.0 | 0.00 | 0.00 | 0.00 | 28 | 1013.0 |
| 20260901211605 | 82 | 167 | 19.0 | 30.0 | 0.00 | 0.00 | 0.00 | 28 | 1013.4 |
| 20260901210106 | 81 | 136 | 17.0 | 25.0 | 0.00 | 0.00 | 0.00 | 27 | 1013.4 |
| 20260901204605 | 81 | 132 | 17.0 | 27.0 | 0.00 | 0.00 | 0.00 | 27 | 1013.4 |
| 20260901203123 | 81 | 142 | 18.0 | 28.0 | 0.00 | 0.00 | 0.00 | 27 | 1013.6 |
| 20260901201612 | 80 | 136 | 15.0 | 26.0 | 0.00 | 0.00 | 0.00 | 28 | 1013.9 |
| 20260901200109 | 79 | 187 | 16.0 | 24.0 | 0.00 | 0.00 | 0.00 | 29 | 1014.0 |
| 20260901194608 | 79 | 125 | 13.0 | 21.0 | 0.00 | 0.00 | 0.00 | 31 | 1014.1 |
| 20260901193106 | 77 | 125 | 13.0 | 21.0 | 0.00 | 0.00 | 0.00 | 32 | 1014.3 |
| 20260901191606 | 78 | 115 | 13.0 | 19.0 | 0.00 | 0.00 | 0.00 | 32 | 1014.5 |
| 20260901190111 | 77 | 116 | 13.0 | 20.0 | 0.00 | 0.00 | 0.00 | 33 | 1014.9 |
| 20260901184606 | 76 | 120 | 13.0 | 19.0 | 0.00 | 0.00 | 0.00 | 34 | 1015.1 |
| 20260901183113 | 75 | 145 | 13.0 | 19.0 | 0.00 | 0.00 | 0.00 | 35 | 1015.3 |
| 20260901181606 | 74 | 158 | 13.0 | 17.0 | 0.00 | 0.00 | 0.00 | 36 | 1015.5 |
| 20260901180108 | 75 | 155 | 13.0 | 20.0 | 0.00 | 0.00 | 0.00 | 35 | 1015.7 |
| 20260901174607 | 74 | 142 | 13.0 | 17.0 | 0.00 | 0.00 | 0.00 | 36 | 1015.8 |
| 20260901173112 | 73 | 140 | 14.0 | 18.0 | 0.00 | 0.00 | 0.00 | 37 | 1016.0 |
| 20260901171621 | 73 | 134 | 16.0 | 21.0 | 0.00 | 0.00 | 0.00 | 37 | 1016.2 |
| 20260901170106 | 73 | 155 | 14.0 | 22.0 | 0.00 | 0.00 | 0.00 | 37 | 1016.2 |
| 20260901164636 | 74 | 153 | 12.0 | 19.0 | 0.00 | 0.00 | 0.00 | 38 | 1016.1 |
| 20260901163104 | 73 | 171 | 13.0 | 18.0 | 0.00 | 0.00 | 0.00 | 38 | 1016.1 |
| 20260901161608 | 72 | 122 | 11.0 | 17.0 | 0.00 | 0.00 | 0.00 | 39 | 1016.0 |
| 20260901160108 | 71 | 124 | 11.0 | 15.0 | 0.00 | 0.00 | 0.00 | 40 | 1016.0 |
| 20260901154603 | 70 | 133 | 9.0 | 15.0 | 0.00 | 0.00 | 0.00 | 43 | 1016.0 |
| 20260901153106 | 69 | 117 | 7.0 | 11.0 | 0.00 | 0.00 | 0.00 | 45 | 1015.9 |
| 20260901151606 | 66 | 106 | 7.0 | 11.0 | 0.00 | 0.00 | 0.00 | 49 | 1016.0 |
| 20260901150105 | 65 | 119 | 6.0 | 9.0 | 0.00 | 0.00 | 0.00 | 51 | 1016.0 |
| 20260901144610 | 64 | 136 | 5.0 | 7.0 | 0.00 | 0.00 | 0.00 | 53 | 1016.2 |
| 20260901143110 | 62 | 91 | 2.0 | 4.0 | 0.00 | 0.00 | 0.00 | 56 | 1016.1 |
| 20260901141610 | 59 | 34 | 0.0 | 4.0 | 0.00 | 0.00 | 0.00 | 61 | 1016.1 |
| 20260901140107 | 59 | 0 | 0.0 | 0.0 | 0.00 | 0.00 | 0.00 | 64 | 1016.2 |
| 20260901134606 | 58 | 0 | 0.0 | 0.0 | 0.00 | 0.00 | 0.00 | 63 | 1016.3 |
| 20260901133105 | 56 | 0 | 0.0 | 0.0 | 0.00 | 0.00 | 0.00 | 66 | 1016.3 |
| 20260901131615 | 56 | 0 | 0.0 | 1.0 | 0.00 | 0.00 | 0.00 | 63 | 1016.3 |
| 20260901130108 | 56 | 0 | 0.0 | 0.0 | 0.00 | 0.00 | 0.00 | 62 | 1016.3 |
| 20260901124608 | 55 | 0 | 2.0 | 4.0 | 0.00 | 0.00 | 0.00 | 65 | 1016.2 |
| 20260901123107 | 53 | 342 | 3.0 | 4.0 | 0.00 | 0.00 | 0.00 | 67 | 1016.2 |
| 20260901121614 | 53 | 343 | 4.0 | 4.0 | 0.00 | 0.00 | 0.00 | 65 | 1016.1 |
| 20260901120124 | 56 | 0 | 0.0 | 0.0 | 0.00 | 0.00 | 0.00 | 62 | 1016.2 |
| 20260901114605 | 56 | 0 | 0.0 | 0.0 | 0.00 | 0.00 | 0.00 | 61 | 1016.1 |
| 20260901113106 | 57 | 0 | 0.0 | 0.0 | 0.00 | 0.00 | 0.00 | 61 | 1016.1 |
| 20260901111613 | 56 | 0 | 0.0 | 0.0 | 0.00 | 0.00 | 0.00 | 61 | 1016.2 |
| 20260901110107 | 55 | 0 | 0.0 | 0.0 | 0.00 | 0.00 | 0.00 | 62 | 1016.2 |
| 20260901104603 | 54 | 0 | 0.0 | 0.0 | 0.00 | 0.00 | 0.00 | 63 | 1016.1 |
| 20260901103129 | 55 | 0 | 0.0 | 0.0 | 0.00 | 0.00 | 0.00 | 63 | 1016.2 |
| 20260901101606 | 53 | 0 | 0.0 | 0.0 | 0.00 | 0.00 | 0.00 | 66 | 1016.2 |
| 20260901100107 | 55 | 0 | 0.0 | 0.0 | 0.00 | 0.00 | 0.00 | 62 | 1016.1 |
| 20260901094609 | 54 | 0 | 0.0 | 4.0 | 0.00 | 0.00 | 0.00 | 63 | 1016.0 |
| 20260901093132 | 54 | 350 | 2.0 | 3.0 | 0.00 | 0.00 | 0.00 | 63 | 1016.0 |
| 20260901091609 | 54 | 348 | 3.0 | 4.0 | 0.00 | 0.00 | 0.00 | 62 | 1016.0 |
| 20260901090108 | 56 | 0 | 0.0 | 0.0 | 0.00 | 0.00 | 0.00 | 59 | 1016.0 |
| 20260901084605 | 57 | 0 | 0.0 | 0.0 | 0.00 | 0.00 | 0.00 | 58 | 1016.2 |
| 20260901083108 | 57 | 0 | 0.0 | 0.0 | 0.00 | 0.00 | 0.00 | 59 | 1016.2 |
| 20260901081616 | 57 | 344 | 3.0 | 4.0 | 0.00 | 0.00 | 0.00 | 58 | 1016.2 |
| 20260901080107 | 58 | 0 | 0.0 | 0.0 | 0.00 | 0.00 | 0.00 | 58 | 1016.3 |
| 20260901074604 | 54 | 0 | 0.0 | 0.0 | 0.00 | 0.00 | 0.00 | 64 | 1016.4 |
| 20260901073107 | 54 | 343 | 5.0 | 7.0 | 0.00 | 0.00 | 0.00 | 64 | 1016.0 |
| 20260901071608 | 58 | 350 | 3.0 | 5.0 | 0.00 | 0.00 | 0.00 | 55 | 1016.0 |
| 20260901070107 | 61 | 0 | 0.0 | 0.0 | 0.00 | 0.00 | 0.00 | 53 | 1016.5 |
| 20260901064608 | 58 | 250 | 1.0 | 2.0 | 0.00 | 0.00 | 0.00 | 57 | 1016.3 |
| 20260901063103 | 60 | 0 | 0.0 | 3.0 | 0.00 | 0.00 | 0.00 | 53 | 1016.0 |
| 20260901061607 | 59 | 0 | 1.0 | 4.0 | 0.00 | 0.00 | 0.00 | 54 | 1016.0 |
| 20260901060111 | 63 | 318 | 1.0 | 4.0 | 0.00 | 0.00 | 0.00 | 49 | 1016.1 |
| 20260901054607 | 60 | 0 | 0.0 | 0.0 | 0.00 | 0.00 | 0.00 | 54 | 1016.0 |
| 20260901053124 | 62 | 309 | 4.0 | 5.0 | 0.00 | 0.00 | 0.00 | 51 | 1015.9 |
| 20260901051607 | 62 | 323 | 4.0 | 5.0 | 0.00 | 0.00 | 0.00 | 51 | 1015.8 |
| 20260901050108 | 62 | 316 | 4.0 | 6.0 | 0.00 | 0.00 | 0.00 | 50 | 1015.7 |
| 20260901044605 | 61 | 311 | 3.0 | 5.0 | 0.00 | 0.00 | 0.00 | 52 | 1015.6 |
| 20260901043130 | 60 | 335 | 5.0 | 8.0 | 0.00 | 0.00 | 0.00 | 53 | 1015.5 |
| 20260901041613 | 59 | 329 | 4.0 | 6.0 | 0.00 | 0.00 | 0.00 | 54 | 1015.3 |
| 20260901040109 | 62 | 327 | 5.0 | 8.0 | 0.00 | 0.00 | 0.00 | 50 | 1015.3 |
| 20260901034608 | 64 | 320 | 6.0 | 10.0 | 0.00 | 0.00 | 0.00 | 47 | 1015.3 |
| 20260901033110 | 65 | 325 | 6.0 | 9.0 | 0.00 | 0.00 | 0.00 | 45 | 1015.4 |
| 20260901031605 | 67 | 302 | 6.0 | 9.0 | 0.00 | 0.00 | 0.00 | 43 | 1015.5 |
| 20260901030105 | 66 | 304 | 6.0 | 11.0 | 0.00 | 0.00 | 0.00 | 43 | 1015.4 |
| 20260901024608 | 67 | 298 | 6.0 | 10.0 | 0.00 | 0.00 | 0.00 | 42 | 1015.4 |
| 20260901023105 | 67 | 281 | 5.0 | 9.0 | 0.00 | 0.00 | 0.00 | 42 | 1015.4 |
| 20260901021609 | 68 | 288 | 6.0 | 9.0 | 0.00 | 0.00 | 0.00 | 41 | 1015.2 |
| 20260901020111 | 68 | 288 | 6.0 | 9.0 | 0.00 | 0.00 | 0.00 | 41 | 1015.1 |